Weather History for Altus AFB, OK

Change the Weather History Date:

Saturday, October 26, 2013

  Actual Average Record
Temperature  
Mean Temperature 64 °F -  
Max Temperature 76 °F 68 °F 91 °F (2014)
Min Temperature 52 °F 47 °F 33 °F (1997)
Degree Days  
Heating Degree Days 1    
Growing Degree Days 14 (Base 50)    
Moisture  
Dew Point 54 °F    
Average Humidity 79    
Maximum Humidity 100    
Minimum Humidity 39    
Precipitation  
Precipitation 0.01 in - - ()
Sea Level Pressure  
Sea Level Pressure 30.12 in    
Wind  
Wind Speed 9 mph (ESE)    
Max Wind Speed 21 mph    
Max Gust Speed 29 mph    
Visibility 10 miles    
Events Rain , Thunderstorm    
Averages and records for this station are not official NWS values.
T = Trace of Precipitation, MM = Missing Value Source: NWS Daily Summary

Daily Weather History Graph

Daily Weather History Graph

Search for Another Location

Airport:

Trip Planner

Search our weather history database for the weather conditions in past years. The results will help you decide how hot, cold, wet, or windy it might be!

Date:

Astronomy

Oct. 26, 2013 Rise Set
Actual Time 7:52 AM CDT 6:49 PM CDT
Civil Twilight 7:26 AM CDT 7:14 PM CDT
Nautical Twilight 6:56 AM CDT 7:44 PM CDT
Astronomical Twilight 6:27 AM CDT 8:13 PM CDT
Moon 12:14 AM CDT (10/26) 2:07 PM CDT (10/26)
Length of Visible Light 11h 48m
Length of Day
10h 56m
Waning Gibbous, 53% of the Moon is Illuminated
Oct 26
Waning Gibbous
Oct 26
Last Quarter
Nov 3
New
Nov 9
First Quarter
Nov 17
Full

Hourly Weather History & Observations

Time (CDT) Temp. Dew Point Humidity Pressure Visibility Wind Dir Wind Speed Gust Speed Precip Events Conditions
12:58 AM 54.7 °F 47.3 °F 76% 30.18 in 10.0 mi ESE 8.1 mph - N/A   Mostly Cloudy
1:58 AM 53.6 °F 47.5 °F 80% 30.16 in 10.0 mi SE 8.1 mph - N/A   Mostly Cloudy
2:58 AM 53.8 °F 48.0 °F 81% 30.16 in 10.0 mi ESE 5.8 mph - N/A   Overcast
3:58 AM 54.1 °F 48.9 °F 82% 30.14 in 10.0 mi ESE 8.1 mph - N/A   Mostly Cloudy
4:58 AM 52.9 °F 48.4 °F 85% 30.13 in 10.0 mi ESE 9.2 mph - N/A   Mostly Cloudy
5:58 AM 53.1 °F 49.3 °F 87% 30.13 in 10.0 mi ESE 8.1 mph - N/A   Overcast
6:09 AM 53.6 °F 50.0 °F 88% 30.14 in 10.0 mi ESE 4.6 mph - N/A   Light Drizzle
6:18 AM 53.6 °F 50.0 °F 88% 30.14 in 10.0 mi ESE 5.8 mph - N/A   Mostly Cloudy
6:58 AM 52.9 °F 50.4 °F 91% 30.13 in 10.0 mi ESE 4.6 mph - 0.00 in   Mostly Cloudy
7:58 AM 52.9 °F 52.0 °F 97% 30.14 in 10.0 mi ESE 5.8 mph - N/A   Overcast
7:59 AM 53.6 °F 51.8 °F 94% 30.14 in 10.0 mi ESE 6.9 mph - N/A Rain Light Rain
8:26 AM 53.6 °F 53.6 °F 100% 30.14 in 10.0 mi ESE 5.8 mph - N/A   Mostly Cloudy
8:36 AM 53.6 °F 53.6 °F 100% 30.15 in 7.0 mi ESE 5.8 mph - N/A   Mostly Cloudy
8:39 AM 53.6 °F 53.6 °F 100% 30.15 in 9.0 mi ESE 5.8 mph - N/A Rain Light Rain
8:44 AM 53.6 °F 53.6 °F 100% 30.15 in 10.0 mi ESE 5.8 mph - N/A Rain Light Rain
8:58 AM 53.4 °F 53.4 °F 100% 30.14 in 10.0 mi ESE 6.9 mph - 0.01 in Rain Light Rain
9:03 AM 53.6 °F 53.6 °F 100% 30.15 in 10.0 mi ESE 5.8 mph - N/A   Overcast
9:08 AM 53.6 °F 53.6 °F 100% 30.15 in 10.0 mi ESE 5.8 mph - N/A   Overcast
9:13 AM 53.6 °F 53.6 °F 100% 30.15 in 10.0 mi ESE 6.9 mph - N/A   Overcast
9:18 AM 53.6 °F 53.6 °F 100% 30.15 in 10.0 mi ESE 8.1 mph - N/A   Mostly Cloudy
9:23 AM 53.6 °F 53.6 °F 100% 30.15 in 10.0 mi ESE 8.1 mph - N/A   Mostly Cloudy
9:28 AM 53.6 °F 53.6 °F 100% 30.15 in 10.0 mi ESE 9.2 mph - N/A   Mostly Cloudy
9:58 AM 55.8 °F 55.8 °F 100% 30.15 in 10.0 mi ESE 10.4 mph - 0.00 in   Mostly Cloudy
10:23 AM 57.2 °F 57.2 °F 100% 30.16 in 10.0 mi SE 8.1 mph - N/A   Scattered Clouds
10:52 AM 59.0 °F 59.0 °F 100% 30.15 in 10.0 mi SE 8.1 mph - N/A   Light Drizzle
10:58 AM 59.0 °F 58.6 °F 99% 30.14 in 10.0 mi SSE 8.1 mph - 0.00 in   Light Drizzle
11:00 AM 59.0 °F 59.0 °F 100% 30.15 in 10.0 mi SE 9.2 mph - N/A Rain Light Rain
11:10 AM 59.0 °F 59.0 °F 100% 30.14 in 10.0 mi SE 8.1 mph - N/A Rain Light Rain
11:15 AM 59.0 °F 59.0 °F 100% 30.14 in 10.0 mi SE 8.1 mph - N/A   Mostly Cloudy
11:30 AM 62.6 °F 60.8 °F 94% 30.14 in 10.0 mi SSE 9.2 mph - N/A   Mostly Cloudy
11:45 AM 62.6 °F 60.8 °F 94% 30.14 in 10.0 mi SSE 11.5 mph - N/A   Mostly Cloudy
11:50 AM 64.4 °F 60.8 °F 88% 30.13 in 10.0 mi South 11.5 mph - N/A   Overcast
11:55 AM 64.4 °F 60.8 °F 88% 30.13 in 10.0 mi SSE 11.5 mph - N/A   Mostly Cloudy
11:58 AM 65.1 °F 60.3 °F 84% 30.11 in 10.0 mi South 10.4 mph - 0.00 in   Mostly Cloudy
12:18 PM 68.0 °F 59.0 °F 73% 30.13 in 10.0 mi SSW 10.4 mph - N/A   Mostly Cloudy
12:58 PM 68.4 °F 59.9 °F 74% 30.09 in 10.0 mi South 6.9 mph - N/A   Overcast
1:03 PM 68.0 °F 59.0 °F 73% 30.11 in 10.0 mi South 10.4 mph - N/A   Overcast
1:43 PM 71.6 °F 59.0 °F 64% 30.09 in 10.0 mi SSW 6.9 mph - N/A   Overcast
1:58 PM 72.7 °F 58.8 °F 62% 30.06 in 10.0 mi SSW 8.1 mph - N/A   Overcast
2:53 PM 73.4 °F 53.6 °F 50% 30.06 in 10.0 mi West 9.2 mph - N/A   Overcast
2:58 PM 73.9 °F 54.0 °F 50% 30.04 in 10.0 mi West 11.5 mph - N/A   Overcast
3:13 PM 75.2 °F 53.6 °F 47% 30.05 in 10.0 mi West 10.4 mph - N/A   Mostly Cloudy
3:18 PM 75.2 °F 53.6 °F 47% 30.05 in 10.0 mi WNW 13.8 mph - N/A   Mostly Cloudy
3:33 PM 73.4 °F 51.8 °F 47% 30.05 in 10.0 mi WNW 11.5 mph - N/A   Mostly Cloudy
3:58 PM 74.1 °F 51.3 °F 45% 30.02 in 10.0 mi West 11.5 mph - N/A   Mostly Cloudy
4:58 PM 76.1 °F 49.3 °F 39% 30.02 in 10.0 mi NNW 9.2 mph - N/A   Mostly Cloudy
5:33 PM 75.2 °F 50.0 °F 41% 30.04 in 10.0 mi North 17.3 mph 28.8 mph N/A   Overcast
5:38 PM 75.2 °F 51.8 °F 44% 30.05 in 10.0 mi North 20.7 mph 28.8 mph N/A   Overcast
5:48 PM 69.8 °F 57.2 °F 64% 30.06 in 10.0 mi North 17.3 mph 26.5 mph N/A   Overcast
5:58 PM 69.6 °F 56.8 °F 64% 30.04 in 10.0 mi NNE 16.1 mph 23.0 mph N/A   Overcast
6:03 PM 69.8 °F 57.2 °F 64% 30.06 in 10.0 mi NNE 17.3 mph - N/A   Overcast
6:13 PM 68.0 °F 57.2 °F 68% 30.07 in 10.0 mi NNE 16.1 mph - N/A   Mostly Cloudy
6:58 PM 64.8 °F 56.8 °F 75% 30.08 in 10.0 mi NNE 12.7 mph - N/A   Clear
7:48 PM 64.4 °F 55.4 °F 73% 30.12 in 10.0 mi NNE 12.7 mph - N/A Thunderstorm Mostly Cloudy
7:58 PM 63.3 °F 56.1 °F 77% 30.11 in 10.0 mi NNE 13.8 mph - N/A   Mostly Cloudy
8:58 PM 61.3 °F 52.0 °F 71% 30.14 in 10.0 mi North 18.4 mph - N/A   Overcast
9:08 PM 60.8 °F 51.8 °F 72% 30.16 in 10.0 mi North 16.1 mph - N/A   Mostly Cloudy
9:18 PM 60.8 °F 50.0 °F 68% 30.16 in 10.0 mi NNE 15.0 mph - N/A   Mostly Cloudy
9:33 PM 60.8 °F 50.0 °F 68% 30.17 in 10.0 mi North 15.0 mph - N/A   Overcast
9:58 PM 60.1 °F 50.7 °F 71% 30.16 in 10.0 mi North 12.7 mph - N/A   Overcast
10:58 PM 59.0 °F 49.1 °F 70% 30.17 in 10.0 mi North 11.5 mph - N/A   Overcast
11:28 PM 57.2 °F 46.4 °F 67% 30.18 in 10.0 mi North 10.4 mph - N/A   Scattered Clouds
11:58 PM 54.5 °F 44.1 °F 68% 30.17 in 10.0 mi NNW 5.8 mph - N/A   Clear